Flag for Switzerland Weather past 2 weeks in Zug, Zug, Switzerland

Now
26 °F

Chilly.


Feels Like: 26 °F
Forecast: 23 / 38 °F
Wind: 2 mph from South

Location: Zurich Town / Ville.

Current Time: Jan 26, 2015 at 8:34:06 AM

Latest Report: Jan 26, 2015 at 7:00 AM


Visibility: N/A

Pressure: 30.44 "Hg

Humidity: 88%

Dew point: 23 °F

Location of ZugLocation

Historic Weather in Zug — Graph

°F

Zug temperature yesterday

Maximum temperature yesterday: 33 °F (at 2:00 PM)
Minimum temperature yesterday: 29 °F (at 2:00 AM)
Average temperature yesterday: 30 °F

Past Weeks' High & Low Weather Summary

 TemperatureHumidityPressure
High54 °F (Jan 13, 1:00 PM)100% (Jan 17, 8:00 AM)30.53 "Hg (Jan 17, 8:00 AM)
Low26 °F (Jan 26, 7:00 AM)23% (Jan 13, 1:00 PM)29.70 "Hg (Jan 16, 4:00 PM)
Average35 °F83%30.09 "Hg
* Reported Jan 11 7:00 AM — Jan 26 7:00 AM, Zug, Weather by CustomWeather, © 2014

Note: Actual official high and low records may vary slightly from our data, if they occured in-between our weather recording intervals... More about our weather records

Advertising

Zug weather history for previous 24 hours

 ConditionsComfort  
Time TempWeatherWind HumidityBarometerVisibility
7:00 AM
Jan 26
26 °FChilly.2 mph88%30.44 "HgN/A
6:00 AM26 °FChilly.1 mph90%30.44 "HgN/A
5:00 AM27 °FChilly.1 mph92%30.44 "HgN/A
3:00 AM27 °FChilly.1 mph95%30.44 "HgN/A
2:00 AM28 °FChilly.2 mph92%30.44 "HgN/A
1:00 AM28 °FChilly.No wind94%30.45 "HgN/A
12:00 AM29 °FChilly.1 mph91%30.46 "HgN/A
11:00 PM
Jan 25
29 °FChilly.1 mph89%30.46 "HgN/A
10:00 PM29 °FChilly.2 mph91%30.47 "HgN/A
9:00 PM29 °FChilly.1 mph92%30.47 "HgN/A
8:00 PM30 °FChilly.1 mph92%30.47 "HgN/A
7:00 PM30 °FChilly.1 mph92%30.47 "HgN/A
6:00 PM31 °FChilly.2 mph89%30.46 "HgN/A
5:00 PM32 °FChilly.2 mph83%30.45 "HgN/A
4:00 PM33 °FChilly.3 mph80%30.44 "HgN/A
3:00 PM33 °FChilly.3 mph81%30.44 "HgN/A
2:00 PM33 °FChilly.1 mph81%30.44 "HgN/A
1:00 PM32 °FChilly.5 mph78%30.46 "HgN/A
12:00 PM32 °FChilly.3 mph82%30.47 "HgN/A
11:00 AM32 °FChilly.1 mph85%30.47 "HgN/A
10:00 AM31 °FChilly.1 mph85%30.46 "HgN/A
9:00 AM29 °FChilly.2 mph88%30.46 "HgN/A
8:00 AM30 °FChilly.1 mph94%30.43 "HgN/A
Weather by CustomWeather, © 2014

See weather overviewHow to use our weather pages